Weather History for Wrangell, AK

Change the Weather History Date:

Saturday, May 25, 2013

  Actual Average Record
Temperature  
Mean Temperature 54 °F -  
Max Temperature 59 °F 57 °F 73 °F (1953)
Min Temperature 48 °F 42 °F 33 °F (1956)
Degree Days  
Heating Degree Days 12    
Growing Degree Days 4 (Base 50)    
Moisture  
Dew Point 46 °F    
Average Humidity 77    
Maximum Humidity 93    
Minimum Humidity 63    
Precipitation  
Precipitation 0.00 in - - ()
Sea Level Pressure  
Sea Level Pressure 30.05 in    
Wind  
Wind Speed 2 mph (WSW)    
Max Wind Speed 7 mph    
Max Gust Speed -    
Visibility 10 miles    
Events      
Averages and records for this station are not official NWS values.
T = Trace of Precipitation, MM = Missing Value Source: NWS Daily Summary

Daily Weather History Graph

Daily Weather History Graph

Search for Another Location

Airport:

Trip Planner

Search our weather history database for the weather conditions in past years. The results will help you decide how hot, cold, wet, or windy it might be!

Date:

Astronomy

May. 25, 2013 Rise Set
Actual Time 4:16 AM AKDT 9:17 PM AKDT
Civil Twilight 3:20 AM AKDT 10:14 PM AKDT
Nautical Twilight 1:28 AM AKDT 12:11 AM AKDT
Astronomical Twilight Sun does not rise Sun does not rise
Moon 10:09 PM AKDT (5/25) 4:55 AM AKDT (5/25)
Length of Visible Light 18h 54m
Length of Day
17h 01m
Full, 99% of the Moon is Illuminated
May 25
Full
May 31
Last Quarter
Jun 8
New
Jun 16
First Quarter
Jun 23
Full

Hourly Weather History & Observations

Time (AKDT) Temp. Dew Point Humidity Pressure Visibility Wind Dir Wind Speed Gust Speed Precip Events Conditions
12:16 AM 53.6 °F 44.6 °F 72% 30.05 in 10.0 mi Calm Calm - N/A   Overcast
12:36 AM 51.8 °F 44.6 °F 76% 30.05 in 10.0 mi Calm Calm - N/A   Mostly Cloudy
12:56 AM 51.8 °F 46.4 °F 82% 30.05 in 10.0 mi North 3.5 mph - N/A   Partly Cloudy
1:16 AM 51.8 °F 46.4 °F 82% 30.05 in 10.0 mi Calm Calm - N/A   Scattered Clouds
1:36 AM 51.8 °F 46.4 °F 82% 30.05 in 10.0 mi Calm Calm - N/A   Partly Cloudy
1:56 AM 51.8 °F 46.4 °F 82% 30.05 in 10.0 mi ESE 3.5 mph - N/A   Clear
2:16 AM 50.0 °F 46.4 °F 87% 30.06 in 10.0 mi Calm Calm - N/A   Mostly Cloudy
2:36 AM 51.8 °F 46.4 °F 82% 30.06 in 10.0 mi Calm Calm - N/A   Overcast
2:56 AM 51.8 °F 44.6 °F 76% 30.06 in 10.0 mi SW 4.6 mph - N/A   Overcast
3:16 AM 50.0 °F 44.6 °F 82% 30.06 in 10.0 mi Calm Calm - N/A   Overcast
3:36 AM 50.0 °F 44.6 °F 82% 30.06 in 10.0 mi WSW 4.6 mph - N/A   Overcast
3:56 AM 50.0 °F 44.6 °F 82% 30.06 in 10.0 mi Calm Calm - N/A   Overcast
4:16 AM 48.2 °F 44.6 °F 87% 30.06 in 10.0 mi Calm Calm - N/A   Mostly Cloudy
4:36 AM 48.2 °F 44.6 °F 87% 30.06 in 9.0 mi Calm Calm - N/A   Overcast
4:56 AM 48.2 °F 44.6 °F 87% 30.06 in 10.0 mi Calm Calm - N/A   Overcast
5:16 AM 48.2 °F 46.4 °F 93% 30.06 in 10.0 mi Calm Calm - N/A   Overcast
5:36 AM 48.2 °F 44.6 °F 87% 30.06 in 10.0 mi Calm Calm - N/A   Overcast
5:56 AM 48.2 °F 44.6 °F 87% 30.06 in 10.0 mi Calm Calm - N/A   Overcast
6:16 AM 48.2 °F 44.6 °F 87% 30.07 in 10.0 mi Calm Calm - N/A   Overcast
6:36 AM 50.0 °F 46.4 °F 87% 30.07 in 10.0 mi Calm Calm - N/A   Overcast
6:56 AM 50.0 °F 46.4 °F 87% 30.07 in 10.0 mi Calm Calm - N/A   Overcast
7:16 AM 50.0 °F 44.6 °F 82% 30.07 in 10.0 mi Calm Calm - N/A   Overcast
7:36 AM 50.0 °F 46.4 °F 87% 30.07 in 10.0 mi Calm Calm - N/A   Overcast
7:56 AM 50.0 °F 46.4 °F 87% 30.07 in 10.0 mi Calm Calm - N/A   Overcast
8:16 AM 50.0 °F 44.6 °F 82% 30.08 in 10.0 mi Calm Calm - N/A   Overcast
8:36 AM 50.0 °F 46.4 °F 87% 30.08 in 10.0 mi Calm Calm - N/A   Overcast
8:56 AM 51.8 °F 46.4 °F 82% 30.08 in 10.0 mi Calm Calm - N/A   Overcast
9:16 AM 51.8 °F 46.4 °F 82% 30.08 in 10.0 mi Calm Calm - N/A   Overcast
9:36 AM 51.8 °F 46.4 °F 82% 30.08 in 10.0 mi WNW 3.5 mph - N/A   Overcast
9:56 AM 51.8 °F 44.6 °F 76% 30.08 in 10.0 mi SW 4.6 mph - N/A   Overcast
10:16 AM 51.8 °F 46.4 °F 82% 30.08 in 10.0 mi WSW 4.6 mph - N/A   Overcast
10:36 AM 53.6 °F 46.4 °F 77% 30.08 in 10.0 mi SW 3.5 mph - N/A   Overcast
10:56 AM 53.6 °F 46.4 °F 77% 30.08 in 10.0 mi SW 4.6 mph - N/A   Mostly Cloudy
11:16 AM 53.6 °F 46.4 °F 77% 30.07 in 10.0 mi SW 5.8 mph - N/A   Mostly Cloudy
11:36 AM 53.6 °F 46.4 °F 77% 30.07 in 10.0 mi SW 5.8 mph - N/A   Mostly Cloudy
11:56 AM 53.6 °F 46.4 °F 77% 30.07 in 10.0 mi WSW 5.8 mph - N/A   Overcast
12:16 PM 53.6 °F 46.4 °F 77% 30.07 in 10.0 mi SW 5.8 mph - N/A   Overcast
12:36 PM 55.4 °F 46.4 °F 72% 30.07 in 10.0 mi SSW 4.6 mph - N/A   Overcast
12:56 PM 55.4 °F 46.4 °F 72% 30.07 in 10.0 mi SSW 5.8 mph - N/A   Mostly Cloudy
1:16 PM 55.4 °F 46.4 °F 72% 30.06 in 10.0 mi WSW 5.8 mph - N/A   Mostly Cloudy
1:36 PM 55.4 °F 46.4 °F 72% 30.06 in 10.0 mi SW 3.5 mph - N/A   Mostly Cloudy
1:56 PM 55.4 °F 46.4 °F 72% 30.06 in 10.0 mi SSW 4.6 mph - N/A   Mostly Cloudy
2:16 PM 57.2 °F 46.4 °F 67% 30.05 in 10.0 mi SW 5.8 mph - N/A   Mostly Cloudy
2:36 PM 57.2 °F 46.4 °F 67% 30.06 in 10.0 mi West 4.6 mph - N/A   Mostly Cloudy
2:56 PM 57.2 °F 46.4 °F 67% 30.06 in 10.0 mi South 3.5 mph - N/A   Overcast
3:16 PM 55.4 °F 46.4 °F 72% 30.05 in 10.0 mi Calm Calm - N/A   Overcast
3:36 PM 57.2 °F 46.4 °F 67% 30.05 in 10.0 mi NNW 3.5 mph - N/A   Overcast
3:56 PM 57.2 °F 46.4 °F 67% 30.05 in 10.0 mi North 3.5 mph - N/A   Overcast
4:36 PM 57.2 °F 48.2 °F 72% 30.04 in 10.0 mi NNW 3.5 mph - N/A   Scattered Clouds
4:56 PM 59.0 °F 46.4 °F 63% 30.04 in 10.0 mi WSW 5.8 mph - N/A   Mostly Cloudy
5:16 PM 59.0 °F 46.4 °F 63% 30.03 in 10.0 mi WSW 6.9 mph - N/A   Mostly Cloudy
5:36 PM 57.2 °F 48.2 °F 72% 30.03 in 10.0 mi East 3.5 mph - N/A   Mostly Cloudy
5:56 PM 57.2 °F 48.2 °F 72% 30.02 in 10.0 mi Calm Calm - N/A   Mostly Cloudy
6:16 PM 57.2 °F 48.2 °F 72% 30.02 in 10.0 mi Calm Calm - N/A   Mostly Cloudy
6:36 PM 57.2 °F 46.4 °F 67% 30.01 in 10.0 mi SSW 4.6 mph - N/A   Mostly Cloudy
6:56 PM 57.2 °F 46.4 °F 67% 30.02 in 10.0 mi SSW 6.9 mph - N/A   Partly Cloudy
7:16 PM 57.2 °F 46.4 °F 67% 30.01 in 10.0 mi SSW 6.9 mph - N/A   Partly Cloudy
7:36 PM 57.2 °F 46.4 °F 67% 30.01 in 10.0 mi West 6.9 mph - N/A   Partly Cloudy
8:16 PM 55.4 °F 46.4 °F 72% 30.01 in 10.0 mi West 3.5 mph - N/A   Mostly Cloudy
8:36 PM 55.4 °F 46.4 °F 72% 30.01 in 10.0 mi Calm Calm - N/A   Mostly Cloudy
8:56 PM 53.6 °F 46.4 °F 77% 30.01 in 10.0 mi Calm Calm - N/A   Overcast
9:16 PM 53.6 °F 46.4 °F 77% 30.01 in 10.0 mi Calm Calm - N/A   Overcast
9:36 PM 53.6 °F 46.4 °F 77% 30.02 in 10.0 mi Calm Calm - N/A   Overcast
9:56 PM 53.6 °F 44.6 °F 72% 30.02 in 10.0 mi NNW 3.5 mph - N/A   Overcast
10:16 PM 53.6 °F 46.4 °F 77% 30.02 in 10.0 mi Calm Calm - N/A   Overcast
10:36 PM 53.6 °F 46.4 °F 77% 30.02 in 10.0 mi Calm Calm - N/A   Overcast
10:56 PM 53.6 °F 46.4 °F 77% 30.02 in 10.0 mi Calm Calm - N/A   Overcast
11:16 PM 53.6 °F 46.4 °F 77% 30.02 in 10.0 mi Calm Calm - N/A   Overcast
11:36 PM 53.6 °F 46.4 °F 77% 30.02 in 10.0 mi Calm Calm - N/A   Overcast
11:56 PM 53.6 °F 46.4 °F 77% 30.02 in 10.0 mi Calm Calm - N/A   Overcast